Weather History for Lafayette, IN

Change the Weather History Date:

Tuesday, December 10, 2013

  Actual Average Record
Temperature  
Mean Temperature 15 °F 32 °F  
Max Temperature 26 °F 39 °F 70 °F (1971)
Min Temperature 4 °F 25 °F -9 °F (1977)
Degree Days  
Heating Degree Days 50 33  
Month to date heating degree days 348 313  
Since 1 July heating degree days 1524 1414  
Cooling Degree Days 0 0  
Month to date cooling degree days 0 0  
Year to date cooling degree days 884 983  
Moisture  
Dew Point 6 °F    
Average Humidity 67    
Maximum Humidity 83    
Minimum Humidity 50    
Precipitation  
Precipitation 0.00 in 0.09 in 0.75 in (1985)
Month to date precipitation 0.11 0.93  
Year to date precipitation 37.59 35.00  
Sea Level Pressure  
Sea Level Pressure 30.24 in    
Wind  
Wind Speed 10 mph (West)    
Max Wind Speed 26 mph    
Max Gust Speed 35 mph    
Visibility 10 miles    
Events      
T = Trace of Precipitation, MM = Missing Value Source: NWS Daily Summary

Daily Weather History Graph

Daily Weather History Graph

Search for Another Location

Airport:

Trip Planner

Search our weather history database for the weather conditions in past years. The results will help you decide how hot, cold, wet, or windy it might be!

Date:

Astronomy

Dec. 10, 2013 Rise Set
Actual Time 8:00 AM EST 5:21 PM EST
Civil Twilight 7:29 AM EST 5:51 PM EST
Nautical Twilight 6:55 AM EST 6:26 PM EST
Astronomical Twilight 6:22 AM EST 6:59 PM EST
Moon 1:23 PM EST (12/10) 1:16 AM EST (12/10)
Length of Visible Light 10h 22m
Length of Day
9h 21m
First Quarter, 61% of the Moon is Illuminated
Dec 10
First Quarter
Dec 17
Full
Dec 25
Last Quarter
Jan 1
New
Jan 7
First Quarter

Hourly Weather History & Observations

Time (EST) Temp. Windchill Dew Point Humidity Pressure Visibility Wind Dir Wind Speed Gust Speed Precip Events Conditions
12:54 AM 14.0 °F 3.9 °F 3.9 °F 64% 30.26 in 10.0 mi WNW 6.9 mph - N/A   Clear
1:54 AM 10.9 °F -0.8 °F 1.0 °F 64% 30.26 in 10.0 mi NW 8.1 mph - N/A   Clear
2:54 AM 10.0 °F -0.9 °F 1.9 °F 70% 30.26 in 10.0 mi WNW 6.9 mph - N/A   Clear
3:54 AM 9.0 °F 0.6 °F 1.0 °F 70% 30.25 in 10.0 mi WNW 4.6 mph - N/A   Clear
4:54 AM 7.0 °F -3.3 °F -0.0 °F 73% 30.25 in 10.0 mi West 5.8 mph - N/A   Clear
5:54 AM 5.0 °F -2.1 °F -0.9 °F 76% 30.24 in 10.0 mi WSW 3.5 mph - N/A   Clear
6:54 AM 5.0 °F - -2.0 °F 73% 30.22 in 10.0 mi Calm Calm - N/A   Clear
7:54 AM 5.0 °F -8.1 °F -2.0 °F 73% 30.21 in 10.0 mi SSW 8.1 mph - N/A   Clear
8:54 AM 9.0 °F -0.9 °F -0.0 °F 67% 30.19 in 10.0 mi SSW 5.8 mph - N/A   Clear
9:54 AM 15.1 °F 1.1 °F 7.0 °F 70% 30.19 in 10.0 mi SW 12.7 mph 21.9 mph N/A   Mostly Cloudy
10:54 AM 19.9 °F 6.2 °F 7.0 °F 57% 30.17 in 10.0 mi SW 15.0 mph 21.9 mph N/A   Mostly Cloudy
11:54 AM 23.0 °F 6.9 °F 7.0 °F 50% 30.16 in 10.0 mi West 24.2 mph 29.9 mph N/A   Clear
12:54 PM 23.0 °F 8.0 °F 9.0 °F 55% 30.16 in 10.0 mi West 20.7 mph 31.1 mph N/A   Scattered Clouds
1:54 PM 25.0 °F 10.6 °F 10.9 °F 55% 30.16 in 10.0 mi West 20.7 mph 29.9 mph N/A   Clear
2:54 PM 25.0 °F 9.2 °F 10.0 °F 53% 30.17 in 10.0 mi West 25.3 mph 33.4 mph N/A   Clear
3:54 PM 25.0 °F 10.2 °F 10.9 °F 55% 30.19 in 10.0 mi West 21.9 mph 31.1 mph N/A   Clear
4:54 PM 24.1 °F 13.1 °F 10.9 °F 57% 30.24 in 10.0 mi West 11.5 mph - N/A   Clear
5:54 PM 21.9 °F 9.2 °F 10.9 °F 63% 30.25 in 10.0 mi West 13.8 mph - N/A   Clear
6:54 PM 21.0 °F 12.4 °F 10.9 °F 65% 30.27 in 10.0 mi WSW 6.9 mph - N/A   Clear
7:54 PM 19.0 °F 11.1 °F 10.0 °F 68% 30.28 in 10.0 mi WSW 5.8 mph - N/A   Clear
8:54 PM 18.0 °F 6.9 °F 8.1 °F 65% 30.30 in 10.0 mi West 9.2 mph - N/A   Clear
9:54 PM 15.1 °F 7.7 °F 7.0 °F 70% 30.34 in 10.0 mi West 4.6 mph - N/A   Clear
10:54 PM 15.1 °F - 7.0 °F 70% 30.35 in 10.0 mi Calm Calm - N/A   Clear
11:54 PM 12.0 °F - 6.1 °F 77% 30.35 in 10.0 mi Calm Calm - N/A   Partly Cloudy